W5IM Weather Reports


Display with metric or nautical units.
time (UTC)temp
F
wind
direction
speed
MPH
gust
MPH
rain 1hr
in
rain 24hr
in
rain mn
in
humidity
%
barometer
mb
20260502193507 73 36 6.0 14.0 0.00 0.16 0.01 50 1019.4
20260502193007 73 26 10.0 17.0 0.00 0.16 0.01 46 1019.4
20260502192507 74 48 11.0 16.0 0.00 0.17 0.01 52 1019.4
20260502192008 73 39 12.0 17.0 0.00 0.17 0.01 51 1019.4
20260502191007 73 50 12.0 18.0 0.00 0.19 0.01 50 1019.3
20260502190507 73 22 11.0 16.0 0.00 0.24 0.01 50 1019.4
20260502190006 73 64 10.0 18.0 0.00 0.25 0.01 48 1019.4
20260502185509 74 54 10.0 20.0 0.00 0.25 0.01 49 1019.5
20260502185007 72 56 10.0 18.0 0.00 0.25 0.01 50 1019.5
20260502184506 72 21 16.0 21.0 0.00 0.25 0.01 50 1019.4
20260502184007 73 31 14.0 20.0 0.00 0.25 0.01 49 1019.4
20260502183507 73 74 13.0 18.0 0.00 0.25 0.01 55 1019.4
20260502183007 73 28 12.0 17.0 0.00 0.25 0.01 52 1019.4
20260502182507 73 49 7.0 12.0 0.00 0.25 0.01 52 1019.5
20260502182007 72 51 8.0 16.0 0.00 0.25 0.01 48 1019.6
20260502181507 72 66 13.0 20.0 0.00 0.25 0.01 51 1019.7
20260502181006 72 27 13.0 18.0 0.00 0.25 0.01 50 1019.7
20260502180508 72 36 10.0 16.0 0.00 0.25 0.01 51 1019.9
20260502170507 70 22 12.0 18.0 0.00 0.25 0.01 56 1020.3
20260502164008 68 32 12.0 17.0 0.00 0.25 0.01 60 1020.3
20260502163508 68 33 9.0 16.0 0.00 0.25 0.01 61 1020.3
20260502163009 68 49 7.0 15.0 0.00 0.25 0.01 65 1020.3
20260502162508 68 46 11.0 16.0 0.00 0.25 0.01 62 1020.2
20260502162009 67 36 11.0 21.0 0.00 0.25 0.01 64 1020.2
20260502160508 66 25 13.0 21.0 0.00 0.25 0.01 66 1020.2
20260502152009 62 38 12.0 20.0 0.00 0.25 0.01 80 1019.9
20260502151509 61 15 14.0 21.0 0.00 0.25 0.01 79 1019.8
20260502151008 61 10 14.0 20.0 0.00 0.25 0.01 79 1019.8
20260502150508 61 20 14.0 20.0 0.00 0.25 0.01 80 1019.8
20260502130509 56 4 12.0 18.0 0.00 0.27 0.01 90 1018.9
20260502123509 57 0 10.0 15.0 0.00 0.33 0.01 90 1018.6
20260502123009 57 349 10.0 13.0 0.00 0.34 0.01 90 1018.5
20260502122508 57 357 12.0 16.0 0.00 0.34 0.01 90 1018.4
20260502122008 57 346 11.0 15.0 0.00 0.34 0.01 90 1018.3
20260502121509 57 352 11.0 16.0 0.00 0.34 0.01 90 1018.3
20260502121009 58 348 9.0 13.0 0.00 0.34 0.01 90 1018.2
20260502120508 58 348 9.0 15.0 0.00 0.34 0.01 91 1018.1
20260502115009 58 355 11.0 14.0 0.00 0.34 0.01 90 1017.9
20260502114508 59 350 9.0 13.0 0.00 0.34 0.01 90 1017.8
20260502114009 59 1 9.0 14.0 0.00 0.34 0.01 89 1017.7
20260502113509 59 6 9.0 15.0 0.00 0.34 0.01 89 1017.7
20260502113009 59 357 9.0 13.0 0.00 0.34 0.01 90 1017.6
20260502112508 59 354 10.0 14.0 0.00 0.34 0.01 90 1017.5
20260502112009 59 352 9.0 13.0 0.00 0.34 0.01 90 1017.5
20260502111508 59 350 10.0 14.0 0.00 0.34 0.01 90 1017.5
20260502111009 59 355 12.0 15.0 0.00 0.34 0.01 90 1017.4
20260502110509 59 2 10.0 15.0 0.00 0.34 0.01 89 1017.3
20260502110008 58 354 12.0 16.0 0.00 0.34 0.01 89 1017.3
20260502105508 58 4 13.0 18.0 0.00 0.34 0.01 89 1017.2
20260502105008 59 358 10.0 16.0 0.00 0.34 0.01 89 1017.4
20260502104508 59 351 10.0 14.0 0.00 0.34 0.01 90 1017.4
20260502104008 59 345 9.0 14.0 0.00 0.34 0.01 90 1017.4
20260502103008 59 345 9.0 13.0 0.00 0.34 0.01 90 1017.2
20260502102508 59 5 8.0 12.0 0.00 0.34 0.01 90 1017.2
20260502102008 59 355 10.0 13.0 0.00 0.34 0.01 90 1017.2
20260502101508 59 11 8.0 13.0 0.00 0.34 0.01 91 1017.1
20260502101008 59 2 7.0 9.0 0.01 0.34 0.01 91 1017.1
20260502100508 59 4 6.0 9.0 0.01 0.34 0.01 91 1017.1
20260502091008 59 7 9.0 13.0 0.00 0.33 0.00 92 1016.6
20260502090508 59 1 9.0 14.0 0.00 0.33 0.00 92 1016.7
20260502071508 59 2 9.0 14.0 0.00 0.33 0.00 91 1016.2
20260502070007 59 0 11.0 15.0 0.00 0.33 0.00 91 1015.8
20260502065508 60 352 7.0 13.0 0.00 0.33 0.00 92 1015.8
20260502065008 59 1 8.0 10.0 0.00 0.33 0.00 92 1015.8
20260502064507 59 11 6.0 10.0 0.00 0.33 0.00 92 1015.6
20260502064007 59 12 9.0 14.0 0.00 0.33 0.00 91 1015.6
20260502063008 59 0 12.0 18.0 0.00 0.33 0.00 91 1015.4
20260502062508 59 5 10.0 15.0 0.00 0.33 0.00 91 1015.5
20260502062007 59 5 8.0 13.0 0.00 0.33 0.00 92 1015.5
20260502061508 59 7 10.0 15.0 0.00 0.33 0.00 91 1015.5
20260502061008 59 2 10.0 15.0 0.00 0.33 0.00 91 1015.6
20260502060507 59 13 10.0 16.0 0.00 0.33 0.00 92 1015.5
20260502060007 59 12 12.0 14.0 0.00 0.33 0.00 91 1015.4
20260502055508 59 17 13.0 20.0 0.00 0.33 0.00 91 1015.4
20260502055008 59 21 15.0 20.0 0.00 0.33 0.00 90 1015.3
20260502054508 59 15 13.0 20.0 0.00 0.33 0.00 91 1015.5
20260502054008 60 12 13.0 20.0 0.00 0.33 0.00 90 1015.4
20260502053507 60 10 12.0 20.0 0.00 0.33 0.00 91 1015.2
20260502052507 60 7 12.0 15.0 0.00 0.33 0.00 91 1015.3
20260502052008 60 359 12.0 16.0 0.00 0.33 0.00 91 1015.4
20260502051508 60 5 13.0 21.0 0.00 0.33 0.00 91 1015.4
20260502050508 60 4 13.0 21.0 0.00 0.33 0.00 91 1015.2
20260502045008 60 359 14.0 20.0 0.00 0.33 0.33 92 1014.9
20260502044507 60 8 14.0 21.0 0.00 0.33 0.33 91 1014.9
20260502044007 60 357 16.0 21.0 0.00 0.33 0.33 91 1014.8
20260502043507 60 3 14.0 20.0 0.00 0.33 0.33 91 1014.8
20260502043007 60 4 12.0 21.0 0.00 0.33 0.33 91 1014.8
20260502042508 60 4 14.0 16.0 0.00 0.33 0.33 91 1014.9
20260502042008 61 1 10.0 20.0 0.00 0.33 0.33 91 1014.9
20260502041507 61 6 12.0 21.0 0.00 0.33 0.33 91 1014.8
20260502041007 61 0 14.0 20.0 0.00 0.33 0.33 90 1014.6
20260502040508 61 2 14.0 18.0 0.00 0.33 0.33 90 1014.5
20260502040008 61 0 13.0 21.0 0.00 0.33 0.33 90 1014.5
20260502035508 61 351 10.0 16.0 0.00 0.33 0.33 90 1014.4
20260502035008 61 359 11.0 18.0 0.00 0.33 0.33 90 1014.4
20260502034507 61 357 13.0 21.0 0.00 0.33 0.33 90 1014.3
20260502033507 61 2 14.0 21.0 0.00 0.33 0.33 90 1014.1
20260502033007 61 5 12.0 22.0 0.00 0.33 0.33 91 1014.0
20260502032508 61 359 13.0 20.0 0.00 0.33 0.33 91 1013.6
20260502032008 61 6 16.0 21.0 0.00 0.33 0.33 90 1013.7
20260502031507 61 4 13.0 20.0 0.00 0.33 0.33 90 1013.7
20260502031008 61 1 14.0 21.0 0.00 0.33 0.33 90 1013.7
20260502030507 61 0 14.0 20.0 0.00 0.33 0.33 90 1013.6
20260502030007 61 7 14.0 20.0 0.00 0.33 0.33 90 1013.4
20260502025508 61 7 16.0 23.0 0.00 0.33 0.33 90 1013.2
20260502025007 61 2 15.0 22.0 0.00 0.33 0.33 90 1013.3
20260502024508 61 2 13.0 20.0 0.00 0.33 0.33 90 1013.1
20260502023508 61 4 16.0 26.0 0.00 0.33 0.33 91 1012.7
20260502022507 61 7 14.0 23.0 0.00 0.33 0.33 91 1012.7
20260502022010 62 9 14.0 22.0 0.00 0.33 0.33 91 1012.3
20260502021008 61 11 16.0 21.0 0.00 0.33 0.33 92 1011.8
20260502020508 62 10 15.0 21.0 0.00 0.33 0.33 92 1011.7
20260502020007 62 9 14.0 21.0 0.00 0.33 0.33 92 1011.8
20260502015008 62 356 14.0 22.0 0.00 0.33 0.33 92 1011.6
20260502014008 62 10 16.0 22.0 0.00 0.33 0.33 92 1011.3
20260502013507 62 9 15.0 22.0 0.00 0.33 0.33 92 1011.3
20260502012507 62 12 17.0 23.0 0.00 0.33 0.33 92 1011.0
20260502012008 62 1 15.0 23.0 0.00 0.33 0.33 92 1010.8
20260502011507 62 9 14.0 22.0 0.00 0.33 0.33 92 1010.6
20260502011008 62 11 16.0 22.0 0.00 0.33 0.33 92 1010.3
20260502010507 62 7 14.0 24.0 0.00 0.33 0.33 92 1010.3
20260502005507 62 9 16.0 23.0 0.00 0.33 0.33 92 1010.0
20260502005008 63 5 16.0 21.0 0.00 0.33 0.33 92 1010.1
20260502004508 63 8 16.0 23.0 0.00 0.33 0.33 92 1010.1
20260502004008 63 3 16.0 23.0 0.00 0.33 0.33 92 1010.0
20260502002507 64 20 14.0 20.0 0.00 0.33 0.33 92 1009.8
20260502002007 64 6 16.0 23.0 0.00 0.34 0.33 92 1009.7
20260502001007 64 7 17.0 23.0 0.00 0.36 0.33 92 1009.7
20260502000507 64 10 16.0 24.0 0.00 0.37 0.33 92 1009.9
20260502000007 64 6 14.0 22.0 0.00 0.39 0.33 93 1009.9
20260501235507 64 12 16.0 23.0 0.01 0.48 0.33 93 1009.7
20260501235007 64 13 14.0 22.0 0.04 0.57 0.33 93 1009.8
20260501234507 64 10 13.0 22.0 0.05 0.58 0.33 93 1009.8
20260501233507 64 7 14.0 22.0 0.05 0.62 0.33 94 1009.6
20260501233008 64 1 16.0 21.0 0.05 0.62 0.33 94 1009.6
20260501232008 64 355 17.0 22.0 0.05 0.62 0.33 94 1009.5
20260501231507 65 339 17.0 23.0 0.05 0.62 0.33 94 1009.6
20260501231007 65 348 12.0 17.0 0.06 0.62 0.33 95 1009.5
20260501230007 65 3 15.0 26.0 0.07 0.62 0.33 95 1009.1
20260501225508 65 0 14.0 22.0 0.06 0.61 0.32 95 1009.1
20260501225008 65 353 15.0 22.0 0.04 0.58 0.29 94 1009.2
20260501224510 65 351 16.0 25.0 0.09 0.57 0.28 94 1009.1
20260501224007 65 349 18.0 26.0 0.10 0.57 0.28 94 1008.9
20260501223507 65 354 18.0 31.0 0.10 0.57 0.28 94 1008.9
20260501223008 66 354 17.0 25.0 0.10 0.57 0.28 95 1008.8
20260501222507 66 351 14.0 18.0 0.10 0.57 0.28 95 1008.7
20260501222007 66 355 14.0 21.0 0.10 0.57 0.28 95 1008.6
20260501221506 66 359 16.0 24.0 0.10 0.57 0.28 94 1008.6
20260501221007 67 339 15.0 25.0 0.09 0.56 0.27 94 1008.7
20260501220508 67 349 12.0 18.0 0.09 0.56 0.27 95 1008.4
20260501215507 67 355 14.0 18.0 0.08 0.55 0.26 93 1008.1
20260501215007 68 10 10.0 18.0 0.07 0.54 0.25 93 1007.7
20260501214507 68 351 12.0 17.0 0.01 0.48 0.19 91 1008.3
20260501214008 68 356 11.0 16.0 0.00 0.47 0.18 91 1007.6
20260501213507 68 27 10.0 16.0 0.00 0.47 0.18 91 1007.0
20260501213008 67 34 12.0 20.0 0.00 0.47 0.18 90 1006.8
20260501212507 68 42 11.0 21.0 0.00 0.47 0.18 91 1006.5
20260501212008 68 51 10.0 16.0 0.00 0.47 0.18 91 1006.5
20260501211507 68 49 12.0 16.0 0.00 0.47 0.18 91 1006.5
20260501211008 68 25 12.0 17.0 0.00 0.47 0.18 91 1006.4
20260501210507 67 22 13.0 17.0 0.00 0.47 0.18 90 1006.6
20260501210007 68 36 11.0 15.0 0.00 0.47 0.18 92 1006.5
20260501205008 68 22 13.0 18.0 0.00 0.47 0.18 90 1006.7
20260501204508 68 12 13.0 20.0 0.00 0.47 0.18 92 1006.6
20260501203507 67 12 14.0 20.0 0.00 0.47 0.18 92 1006.7
20260501203007 67 18 12.0 17.0 0.00 0.47 0.18 93 1006.8
20260501202008 67 11 14.0 20.0 0.01 0.47 0.18 93 1006.6
20260501201510 67 17 12.0 16.0 0.03 0.47 0.18 94 1006.7
20260501200507 67 354 11.0 15.0 0.08 0.47 0.18 95 1007.0
20260501200007 67 13 8.0 12.0 0.09 0.47 0.18 95 1007.1
20260501195506 67 357 8.0 13.0 0.09 0.47 0.18 95 1007.4
20260501195007 67 11 9.0 14.0 0.09 0.47 0.18 95 1007.2
20260501194007 67 8 9.0 13.0 0.09 0.47 0.18 96 1007.4